SM2GSR-2 Weather Reports


Display with metric or nautical units.
time (UTC)temp
F
wind
direction
speed
MPH
gust
MPH
rain 1hr
in
rain 24hr
in
rain mn
in
humidity
%
barometer
mb
20260905141004 55 332 0.0 3.0 0.00 0.02 0.00 64 995.7
20260905140504 56 19 3.0 7.0 0.00 0.02 0.00 62 995.6
20260905135503 58 333 5.0 9.0 0.00 0.02 0.00 61 995.4
20260905135004 58 348 2.0 8.0 0.00 0.02 0.00 63 995.4
20260905134503 58 305 2.0 6.0 0.00 0.03 0.00 64 995.2
20260905134004 57 300 2.0 3.0 0.00 0.03 0.00 71 995.2
20260905133503 55 312 0.0 3.0 0.00 0.03 0.00 75 995.3
20260905133004 55 311 0.0 0.0 0.00 0.03 0.00 71 995.2
20260905132503 55 311 0.0 0.0 0.00 0.03 0.00 70 995.2
20260905132003 55 311 2.0 3.0 0.00 0.03 0.00 68 995.2
20260905131004 56 328 0.0 0.0 0.00 0.03 0.00 68 995.1
20260905130504 56 341 0.0 2.0 0.00 0.03 0.00 68 995.1
20260905130004 56 8 0.0 2.0 0.00 0.03 0.00 72 995.1
20260905125504 55 24 0.0 0.0 0.00 0.03 0.00 70 995.1
20260905125004 55 24 0.0 2.0 0.00 0.03 0.00 67 995.1
20260905124504 56 329 0.0 1.0 0.00 0.03 0.00 66 995.0
20260905124004 57 329 1.0 3.0 0.00 0.03 0.00 64 995.0
20260905123504 58 17 1.0 5.0 0.00 0.04 0.00 62 995.0
20260905123005 58 38 2.0 6.0 0.00 0.04 0.00 64 995.0
20260905122504 58 322 0.0 3.0 0.00 0.05 0.00 64 994.8
20260905122003 57 316 2.0 5.0 0.00 0.07 0.00 71 994.8
20260905121504 57 303 1.0 5.0 0.00 0.08 0.00 69 994.8
20260905121004 56 331 1.0 6.0 0.00 0.08 0.00 67 994.9
20260905120504 56 302 2.0 3.0 0.00 0.08 0.00 70 994.8
20260905120004 56 9 0.0 3.0 0.00 0.08 0.00 65 994.8
20260905115503 57 27 2.0 5.0 0.00 0.08 0.00 66 994.8
20260905115004 57 284 0.0 6.0 0.00 0.08 0.00 68 994.8
20260905114504 56 298 0.0 3.0 0.00 0.08 0.00 69 994.8
20260905114004 56 298 1.0 3.0 0.00 0.08 0.00 70 994.8
20260905113003 55 328 3.0 6.0 0.00 0.08 0.00 71 994.7
20260905112503 55 348 3.0 8.0 0.00 0.09 0.00 68 994.7
20260905111504 55 344 0.0 3.0 0.00 0.13 0.00 71 994.7
20260905111004 54 344 0.0 1.0 0.00 0.18 0.00 72 994.7
20260905110504 54 350 1.0 3.0 0.00 0.20 0.00 72 994.6
20260905110004 55 328 0.0 6.0 0.00 0.20 0.00 70 994.6
20260905105504 55 303 2.0 5.0 0.00 0.20 0.00 71 994.5
20260905104004 55 16 0.0 5.0 0.00 0.20 0.00 76 994.5
20260905103004 53 304 0.0 5.0 0.00 0.20 0.00 77 994.4
20260905102504 54 343 1.0 8.0 0.00 0.20 0.00 74 994.4
20260905102004 55 70 1.0 3.0 0.00 0.20 0.00 70 994.4
20260905101504 55 76 3.0 7.0 0.00 0.20 0.00 72 994.4
20260905101004 55 66 3.0 8.0 0.00 0.20 0.00 75 994.3
20260905095504 54 17 2.0 6.0 0.00 0.20 0.00 73 994.3
20260905095004 54 356 3.0 7.0 0.00 0.20 0.00 75 994.3
20260905094504 54 81 2.0 3.0 0.00 0.20 0.00 78 994.3
20260905094004 53 65 2.0 5.0 0.00 0.20 0.00 80 994.2
20260905093504 52 53 3.0 6.0 0.00 0.20 0.00 77 994.2
20260905093004 52 74 2.0 6.0 0.00 0.20 0.00 78 994.2
20260905092010 52 0 1.0 5.0 0.00 0.20 0.00 79 994.1
20260905091504 51 68 3.0 5.0 0.00 0.20 0.00 80 994.1
20260905091004 51 63 3.0 6.0 0.00 0.20 0.00 80 994.1
20260905090504 51 23 2.0 3.0 0.00 0.20 0.00 80 994.1
20260905085504 51 339 2.0 5.0 0.00 0.20 0.00 80 994.1
20260905085003 51 335 3.0 7.0 0.00 0.20 0.00 80 994.1
20260905084504 51 2 1.0 6.0 0.00 0.20 0.00 81 994.1
20260905084003 51 357 2.0 6.0 0.00 0.20 0.00 84 994.0
20260905083503 50 66 2.0 6.0 0.00 0.20 0.00 84 994.0
20260905082503 50 7 1.0 3.0 0.00 0.20 0.00 86 994.0
20260905082004 50 329 0.0 3.0 0.00 0.20 0.00 85 994.0
20260905081504 50 337 2.0 5.0 0.00 0.20 0.00 86 994.0
20260905080504 50 7 1.0 5.0 0.00 0.20 0.00 87 994.0
20260905080004 49 329 3.0 7.0 0.00 0.20 0.00 87 993.9
20260905075504 50 15 2.0 7.0 0.00 0.20 0.00 88 993.9
20260905074504 50 24 1.0 3.0 0.00 0.20 0.00 89 993.9
20260905074003 50 359 1.0 5.0 0.00 0.20 0.00 88 993.8
20260905073504 50 355 1.0 5.0 0.00 0.20 0.00 88 993.7
20260905073003 49 340 2.0 6.0 0.00 0.20 0.00 88 993.8
20260905072004 49 40 2.0 3.0 0.00 0.20 0.00 88 993.7
20260905071003 49 328 2.0 5.0 0.00 0.20 0.00 88 993.6
20260905070004 49 338 1.0 3.0 0.00 0.20 0.00 89 993.6
20260905065004 49 329 1.0 8.0 0.00 0.20 0.00 88 993.5
20260905064504 49 41 3.0 9.0 0.00 0.20 0.00 89 993.4
20260905064003 49 344 1.0 5.0 0.00 0.20 0.00 89 993.4
20260905063004 49 61 0.0 0.0 0.00 0.20 0.00 89 993.4
20260905062503 49 61 1.0 3.0 0.00 0.20 0.00 89 993.4
20260905062004 49 27 0.0 2.0 0.00 0.20 0.00 89 993.3
20260905061504 49 29 0.0 3.0 0.00 0.20 0.00 90 993.3
20260905061004 49 26 0.0 0.0 0.00 0.20 0.00 90 993.3
20260905060506 49 348 1.0 3.0 0.00 0.20 0.00 90 993.1
20260905060003 49 354 1.0 9.0 0.00 0.20 0.00 90 993.2
20260905055506 49 333 0.0 9.0 0.00 0.20 0.00 90 993.2
20260905055004 49 9 1.0 3.0 0.00 0.20 0.00 90 993.1
20260905054504 49 27 1.0 3.0 0.00 0.20 0.00 90 993.1
20260905054004 49 7 0.0 3.0 0.00 0.20 0.00 89 993.1
20260905053504 49 347 1.0 3.0 0.00 0.20 0.00 89 993.0
20260905053004 49 348 0.0 0.0 0.00 0.20 0.00 89 993.0
20260905052503 49 348 0.0 3.0 0.00 0.20 0.00 89 993.0
20260905051503 49 348 0.0 3.0 0.00 0.20 0.00 89 993.0
20260905051004 49 348 0.0 3.0 0.00 0.20 0.00 89 993.0
20260905050504 49 355 2.0 3.0 0.00 0.20 0.00 89 992.9
20260905050004 49 352 1.0 3.0 0.00 0.20 0.00 89 992.9
20260905045004 49 327 1.0 3.0 0.00 0.20 0.00 90 992.9
20260905044504 49 321 0.0 3.0 0.00 0.20 0.00 90 992.9
20260905044004 49 322 2.0 5.0 0.00 0.20 0.00 90 992.9
20260905043504 49 336 2.0 5.0 0.00 0.20 0.00 90 992.8
20260905043004 49 344 2.0 5.0 0.00 0.20 0.00 90 992.8
20260905042004 49 351 0.0 0.0 0.00 0.20 0.00 90 992.7
20260905041504 49 351 0.0 0.0 0.00 0.20 0.00 90 992.7
20260905041005 49 351 0.0 0.0 0.00 0.20 0.00 90 992.7
20260905040504 49 351 0.0 0.0 0.00 0.20 0.00 90 992.7
20260905040004 49 350 0.0 0.0 0.00 0.20 0.00 90 992.7
20260905035505 49 350 0.0 1.0 0.00 0.20 0.00 90 992.7
20260905034503 49 12 0.0 0.0 0.00 0.20 0.00 90 992.6
20260905033004 49 12 0.0 1.0 0.00 0.20 0.00 90 992.5
20260905032505 49 12 0.0 0.0 0.00 0.20 0.00 90 992.5
20260905032004 49 12 0.0 5.0 0.00 0.20 0.00 90 992.5
20260905031004 49 32 0.0 0.0 0.00 0.20 0.00 90 992.4
20260905030003 50 32 0.0 0.0 0.00 0.20 0.00 90 992.5
20260905025504 50 32 0.0 0.0 0.00 0.20 0.00 90 992.4
20260905025004 50 32 0.0 0.0 0.00 0.20 0.00 90 992.4
20260905024004 50 34 0.0 0.0 0.00 0.20 0.00 90 992.5
20260905023504 50 34 0.0 0.0 0.00 0.20 0.00 90 992.4
20260905023004 50 34 0.0 0.0 0.00 0.20 0.00 90 992.4
20260905022504 50 34 0.0 0.0 0.00 0.20 0.00 90 992.4
20260905022004 50 34 0.0 0.0 0.00 0.20 0.00 90 992.4
20260905021504 50 34 0.0 0.0 0.00 0.20 0.00 90 992.4
20260905021004 50 34 0.0 2.0 0.00 0.20 0.00 90 992.4
20260905020504 50 34 1.0 3.0 0.00 0.20 0.00 90 992.4
20260905020004 50 34 1.0 3.0 0.00 0.20 0.00 90 992.3
20260905015504 50 35 1.0 2.0 0.00 0.20 0.00 90 992.3
20260905015004 50 35 1.0 3.0 0.00 0.20 0.00 90 992.3
20260905014503 50 36 0.0 3.0 0.00 0.20 0.00 89 992.3
20260905014004 50 36 0.0 3.0 0.00 0.20 0.00 89 992.3
20260905012504 50 42 0.0 2.0 0.00 0.20 0.00 89 992.1
20260905012004 50 42 0.0 0.0 0.00 0.20 0.00 89 992.1
20260905011504 50 42 0.0 0.0 0.00 0.20 0.00 89 992.1
20260905011003 50 42 0.0 0.0 0.00 0.20 0.00 89 992.1
20260905010004 50 42 0.0 1.0 0.00 0.20 0.00 89 992.1
20260905005503 50 42 1.0 3.0 0.00 0.20 0.00 91 992.1
20260905005004 50 42 0.0 0.0 0.00 0.20 0.00 92 992.1
20260905004004 50 42 0.0 0.0 0.00 0.20 0.00 89 992.0
20260905003504 50 42 0.0 0.0 0.00 0.20 0.00 89 992.0
20260905002504 50 42 1.0 3.0 0.00 0.20 0.00 91 992.0
20260905002004 50 42 0.0 1.0 0.00 0.20 0.00 92 992.0
20260905001505 50 42 0.0 0.0 0.00 0.20 0.00 88 992.1
20260905001003 50 42 0.0 0.0 0.00 0.20 0.00 88 992.1
20260905000504 50 42 0.0 0.0 0.00 0.20 0.00 88 992.1
20260904235004 50 42 0.0 0.0 0.00 0.20 0.00 88 992.2
20260904234504 50 42 0.0 0.0 0.00 0.20 0.00 88 992.3
20260904234003 50 42 0.0 0.0 0.00 0.20 0.00 88 992.3
20260904233504 50 42 0.0 0.0 0.00 0.20 0.00 88 992.3
20260904233004 50 42 0.0 0.0 0.00 0.20 0.00 88 992.3
20260904232504 50 42 0.0 0.0 0.00 0.20 0.00 89 992.2
20260904232004 51 42 0.0 0.0 0.00 0.20 0.00 89 992.3
20260904231504 51 42 0.0 0.0 0.00 0.20 0.00 89 992.3
20260904230504 51 43 0.0 0.0 0.00 0.20 0.00 89 992.3
20260904230004 51 43 0.0 1.0 0.00 0.20 0.00 89 992.3
20260904225504 51 43 0.0 0.0 0.00 0.20 0.00 89 992.3
20260904224504 51 43 0.0 0.0 0.00 0.20 0.00 89 992.3
20260904224003 51 43 0.0 0.0 0.00 0.20 0.00 89 992.3
20260904223504 51 43 0.0 0.0 0.00 0.20 0.00 89 992.4
20260904223004 51 43 0.0 0.0 0.00 0.20 0.00 89 992.4
20260904222504 51 43 0.0 2.0 0.00 0.20 0.00 88 992.4
20260904222004 51 43 0.0 2.0 0.00 0.20 0.00 88 992.4
20260904221504 51 43 0.0 1.0 0.00 0.20 0.00 88 992.5
20260904221004 51 43 0.0 3.0 0.00 0.20 0.00 88 992.5
20260904220504 51 43 0.0 2.0 0.00 0.20 0.00 88 992.5
20260904220004 51 43 0.0 0.0 0.00 0.20 0.00 88 992.5
20260904215503 51 43 0.0 0.0 0.00 0.20 0.20 88 992.5
20260904215004 51 43 0.0 1.0 0.00 0.20 0.20 88 992.5
20260904214003 51 43 0.0 0.0 0.00 0.20 0.20 88 992.5
20260904213504 51 43 0.0 2.0 0.00 0.20 0.20 88 992.5
20260904213004 51 44 1.0 3.0 0.00 0.20 0.20 88 992.4
20260904212004 51 53 0.0 0.0 0.00 0.20 0.20 88 992.4
20260904211504 51 53 0.0 1.0 0.00 0.20 0.20 88 992.4
20260904211004 51 355 0.0 0.0 0.00 0.20 0.20 88 992.5
20260904210505 51 355 1.0 3.0 0.00 0.20 0.20 88 992.5
20260904210004 51 355 0.0 0.0 0.00 0.20 0.20 88 992.5
20260904205503 51 355 0.0 2.0 0.00 0.20 0.20 88 992.4
20260904205004 51 355 0.0 0.0 0.00 0.20 0.20 88 992.5
20260904204504 51 0 0.0 0.0 0.00 0.20 0.20 88 992.5
20260904204005 51 17 0.0 0.0 0.00 0.20 0.20 88 992.5
20260904203504 51 17 0.0 1.0 0.00 0.20 0.20 88 992.5
20260904203004 51 17 0.0 3.0 0.00 0.20 0.20 88 992.6
20260904202505 51 17 0.0 3.0 0.00 0.20 0.20 88 992.5
20260904202004 51 17 0.0 3.0 0.00 0.20 0.20 88 992.5
20260904201504 51 17 0.0 2.0 0.00 0.20 0.20 88 992.5
20260904201005 51 17 0.0 0.0 0.00 0.20 0.20 88 992.5
20260904195503 52 17 0.0 0.0 0.00 0.20 0.20 88 992.5
20260904195005 52 17 0.0 0.0 0.00 0.20 0.20 89 992.6
20260904194504 52 17 0.0 0.0 0.00 0.20 0.20 89 992.6
20260904194003 52 17 0.0 0.0 0.00 0.20 0.20 89 992.5
20260904193504 52 17 0.0 3.0 0.00 0.20 0.20 89 992.6
20260904193004 52 32 0.0 0.0 0.00 0.20 0.20 89 992.5
20260904192504 52 32 0.0 0.0 0.00 0.20 0.20 89 992.6
20260904192004 52 32 0.0 2.0 0.00 0.20 0.20 89 992.6
20260904191504 52 34 0.0 2.0 0.00 0.20 0.20 89 992.6
20260904191003 52 344 1.0 3.0 0.00 0.20 0.20 89 992.6
20260904190504 52 30 0.0 0.0 0.00 0.20 0.20 89 992.6
20260904190004 52 30 0.0 0.0 0.00 0.20 0.20 89 992.6
20260904185504 52 30 0.0 0.0 0.00 0.20 0.20 89 992.6
20260904184004 52 30 0.0 0.0 0.00 0.20 0.20 89 992.7
20260904183504 52 30 0.0 0.0 0.00 0.20 0.20 89 992.7
20260904183004 52 30 0.0 0.0 0.00 0.20 0.20 89 992.6
20260904182004 52 30 1.0 3.0 0.00 0.20 0.20 89 992.7
20260904181504 52 30 1.0 3.0 0.00 0.20 0.20 89 992.7
20260904181003 53 30 0.0 0.0 0.00 0.20 0.20 89 992.7
20260904180504 53 30 0.0 1.0 0.00 0.20 0.20 89 992.7
20260904175503 53 356 1.0 3.0 0.00 0.20 0.20 89 992.6
20260904175004 53 0 1.0 7.0 0.00 0.20 0.20 89 992.5
20260904174504 53 336 1.0 3.0 0.00 0.20 0.20 89 992.5
20260904174003 53 351 0.0 0.0 0.00 0.20 0.20 89 992.5
20260904173504 53 351 0.0 0.0 0.00 0.20 0.20 89 992.5
20260904173004 53 351 0.0 0.0 0.00 0.20 0.20 89 992.5
20260904172504 53 351 0.0 0.0 0.00 0.20 0.20 89 992.5
20260904172004 53 351 0.0 0.0 0.00 0.20 0.20 89 992.4
20260904171504 53 351 0.0 1.0 0.00 0.20 0.20 89 992.4
20260904171004 53 351 0.0 0.0 0.00 0.20 0.20 89 992.4
20260904170504 53 351 0.0 0.0 0.00 0.20 0.20 89 992.4
20260904170004 53 351 0.0 0.0 0.00 0.20 0.20 89 992.4
20260904165504 53 351 0.0 0.0 0.00 0.20 0.20 89 992.4
20260904165004 54 351 0.0 0.0 0.00 0.20 0.20 89 992.4
20260904164504 54 351 0.0 1.0 0.00 0.20 0.20 88 992.4
20260904164004 54 351 1.0 3.0 0.00 0.20 0.20 89 992.4
20260904163504 54 351 0.0 0.0 0.00 0.20 0.20 89 992.4
20260904163004 54 351 0.0 1.0 0.00 0.20 0.20 89 992.4
20260904162504 54 351 0.0 0.0 0.00 0.20 0.20 89 992.4
20260904161504 54 351 0.0 1.0 0.00 0.20 0.20 89 992.4
20260904161004 55 348 0.0 1.0 0.00 0.20 0.20 89 992.4
20260904155503 55 345 1.0 3.0 0.01 0.20 0.20 89 992.4
20260904154505 55 331 0.0 1.0 0.02 0.20 0.20 89 992.4
20260904154003 55 331 0.0 0.0 0.02 0.20 0.20 89 992.4
20260904153004 54 331 0.0 0.0 0.02 0.20 0.20 89 992.4
20260904152504 54 331 0.0 0.0 0.02 0.20 0.20 89 992.4
20260904151004 54 331 0.0 0.0 0.02 0.20 0.20 89 992.4
20260904150504 54 331 0.0 3.0 0.02 0.20 0.20 89 992.4
20260904150004 55 330 0.0 3.0 0.02 0.20 0.20 89 992.4
20260904145504 55 313 0.0 0.0 0.01 0.19 0.19 89 992.4
20260904145004 55 313 2.0 3.0 0.00 0.18 0.18 89 992.5
20260904144504 55 315 1.0 3.0 0.01 0.18 0.18 89 992.5
20260904144004 55 334 2.0 5.0 0.01 0.18 0.18 89 992.5
20260904143504 55 16 0.0 3.0 0.01 0.18 0.18 89 992.5
20260904143004 55 21 0.0 3.0 0.01 0.18 0.18 89 992.5
20260904142004 55 23 0.0 0.0 0.01 0.18 0.18 89 992.5
20260904141504 55 23 0.0 0.0 0.01 0.18 0.18 89 992.6